FDX168 KLAX-KDEN

Flight info

Callsign FDX168
Flight time N/A
Altitude 39000
Route OSHNN1 BEALE DVC SHNPS TBARR4
Aircraft A333/H-SDE3GHIJ2J3J5M1RVWXY/LB2D1

Departure

Time 2026-04-25 23:53
Airport Los Angeles International Airport (KLAX)

Arrival

Time N/A
Airport Denver International Airport (KDEN)
Time Latitude Longitude Altitude Speed Heading
2026-04-25 23:19 33.93408 -118.38773 100 ft 0 kts 173°
2026-04-25 23:45 33.93416 -118.38775 98 ft 4 kts 173°
2026-04-25 23:46 33.93441 -118.38778 98 ft 1 kts 173°
2026-04-25 23:46 33.93463 -118.38785 97 ft 4 kts 139°
2026-04-25 23:46 33.93471 -118.38807 97 ft 3 kts 83°
2026-04-25 23:46 33.93468 -118.38838 95 ft 3 kts 83°
2026-04-25 23:47 33.93468 -118.38841 95 ft 0 kts 83°
2026-04-25 23:49 33.93478 -118.38811 95 ft 5 kts 56°
2026-04-25 23:49 33.93540 -118.38783 97 ft 11 kts 28°
2026-04-25 23:49 33.93568 -118.38715 98 ft 11 kts 79°
2026-04-25 23:50 33.93579 -118.38616 100 ft 12 kts 83°
2026-04-25 23:50 33.93590 -118.38505 97 ft 17 kts 83°
2026-04-25 23:50 33.93604 -118.38366 97 ft 16 kts 83°
2026-04-25 23:50 33.93654 -118.38285 102 ft 0 kts 11°
2026-04-25 23:52 33.93666 -118.38283 101 ft 9 kts
2026-04-25 23:52 33.93726 -118.38390 103 ft 26 kts 265°
2026-04-25 23:52 33.93677 -118.38855 100 ft 90 kts 262°
2026-04-25 23:52 33.93572 -118.39860 102 ft 149 kts 261°
2026-04-25 23:53 33.93414 -118.41226 538 ft 171 kts 258°
2026-04-25 23:53 33.93259 -118.42617 1643 ft 162 kts 262°
2026-04-25 23:53 33.93130 -118.43963 2507 ft 161 kts 264°
2026-04-25 23:53 33.92938 -118.45315 2901 ft 169 kts 252°
2026-04-25 23:54 33.92380 -118.46596 3366 ft 168 kts 236°
2026-04-25 23:54 33.91782 -118.47556 4438 ft 126 kts 233°
2026-04-25 23:54 33.91158 -118.48438 4711 ft 156 kts 230°
2026-04-25 23:54 33.90373 -118.49401 5149 ft 174 kts 225°
2026-04-25 23:55 33.89416 -118.50533 5413 ft 211 kts 227°
2026-04-25 23:55 33.88312 -118.51930 5683 ft 249 kts 228°
2026-04-25 23:55 33.87025 -118.53572 5873 ft 291 kts 228°
2026-04-25 23:55 33.85824 -118.55707 6027 ft 328 kts 246°
2026-04-25 23:56 33.84940 -118.58291 6949 ft 336 kts 245°
2026-04-25 23:56 33.83704 -118.60619 8474 ft 325 kts 228°
2026-04-25 23:56 33.81984 -118.62297 10058 ft 314 kts 214°
2026-04-25 23:56 33.80100 -118.63572 11211 ft 309 kts 206°
2026-04-25 23:57 33.78015 -118.64356 11778 ft 322 kts 192°
2026-04-25 23:57 33.75727 -118.64290 12247 ft 339 kts 172°
2026-04-25 23:57 33.73524 -118.63139 12818 ft 356 kts 149°
2026-04-25 23:57 33.71798 -118.60946 13429 ft 372 kts 126°
2026-04-25 23:58 33.70745 -118.58062 13970 ft 383 kts 113°
2026-04-25 23:58 33.69933 -118.54994 14533 ft 387 kts 111°
2026-04-25 23:58 33.69141 -118.51896 15084 ft 390 kts 111°
2026-04-25 23:58 33.68329 -118.48772 15650 ft 393 kts 111°
2026-04-25 23:59 33.67497 -118.45627 16284 ft 397 kts 112°
2026-04-25 23:59 33.66644 -118.42448 16854 ft 403 kts 112°
2026-04-25 23:59 33.65779 -118.39231 17571 ft 405 kts 112°
2026-04-25 23:59 33.64929 -118.36007 18273 ft 408 kts 111°
2026-04-26 00:00 33.64462 -118.32593 18751 ft 421 kts 98°
2026-04-26 00:00 33.64394 -118.29042 19122 ft 429 kts 94°
2026-04-26 00:00 33.64409 -118.25451 19525 ft 433 kts 94°
2026-04-26 00:00 33.64568 -118.21817 19932 ft 441 kts 84°
2026-04-26 00:01 33.65492 -118.18276 20331 ft 451 kts 64°
2026-04-26 00:01 33.67278 -118.15225 20696 ft 456 kts 45°
2026-04-26 00:01 33.69760 -118.12768 21084 ft 458 kts 33°
2026-04-26 00:01 33.72349 -118.10590 21509 ft 462 kts 32°
2026-04-26 00:02 33.74989 -118.08359 21899 ft 466 kts 33°
2026-04-26 00:02 33.77629 -118.06077 22264 ft 470 kts 34°
2026-04-26 00:02 33.80283 -118.03744 22601 ft 475 kts 34°
2026-04-26 00:02 33.82955 -118.01370 22983 ft 479 kts 34°
2026-04-26 00:03 33.85634 -117.98973 23403 ft 482 kts 34°
2026-04-26 00:03 33.88327 -117.96557 23799 ft 484 kts 35°
2026-04-26 00:03 33.91031 -117.94122 24176 ft 486 kts 35°
2026-04-26 00:03 33.93732 -117.91662 24503 ft 489 kts 36°
2026-04-26 00:04 33.96450 -117.89179 24863 ft 492 kts 36°
2026-04-26 00:04 33.99178 -117.86682 25215 ft 494 kts 36°
2026-04-26 00:04 34.01914 -117.84178 25541 ft 497 kts 36°
2026-04-26 00:04 34.04679 -117.81646 25878 ft 499 kts 36°
2026-04-26 00:05 34.07431 -117.79089 26192 ft 502 kts 38°
2026-04-26 00:05 34.09960 -117.76169 26504 ft 505 kts 48°
2026-04-26 00:05 34.12231 -117.72945 26797 ft 507 kts 51°
2026-04-26 00:05 34.14464 -117.69630 27100 ft 509 kts 52°
2026-04-26 00:06 34.16698 -117.66295 27400 ft 511 kts 52°
2026-04-26 00:06 34.18938 -117.62950 27740 ft 513 kts 52°
2026-04-26 00:06 34.21180 -117.59607 28180 ft 512 kts 52°
2026-04-26 00:06 34.23429 -117.56268 28501 ft 514 kts 52°
2026-04-26 00:07 34.25691 -117.52898 28711 ft 517 kts 52°
2026-04-26 00:07 34.27960 -117.49511 29007 ft 519 kts 52°
2026-04-26 00:07 34.30235 -117.46112 29240 ft 521 kts 52°
2026-04-26 00:07 34.32514 -117.42704 29559 ft 522 kts 52°
2026-04-26 00:08 34.34796 -117.39292 29829 ft 524 kts 52°
2026-04-26 00:08 34.37004 -117.35986 30047 ft 526 kts 52°
2026-04-26 00:08 34.39314 -117.32526 30250 ft 529 kts 52°
2026-04-26 00:08 34.41625 -117.29060 30415 ft 531 kts 52°
2026-04-26 00:09 34.43950 -117.25572 30597 ft 533 kts 52°
2026-04-26 00:09 34.46283 -117.22066 30827 ft 535 kts 52°
2026-04-26 00:09 34.48624 -117.18546 30984 ft 538 kts 52°
2026-04-26 00:09 34.50970 -117.15015 31171 ft 539 kts 52°
2026-04-26 00:10 34.53323 -117.11470 31424 ft 540 kts 52°
2026-04-26 00:10 34.55706 -117.07939 31588 ft 542 kts 51°
2026-04-26 00:10 34.58126 -117.04417 31837 ft 543 kts 51°
2026-04-26 00:10 34.60549 -117.00895 32110 ft 543 kts 51°
2026-04-26 00:11 34.62969 -116.97371 32347 ft 543 kts 51°
2026-04-26 00:11 34.65389 -116.93844 32591 ft 544 kts 51°
2026-04-26 00:11 34.67780 -116.90353 32830 ft 545 kts 51°